Location: Unnamed
(47.6578°N, 23.5640°E)
Time: 22:31:21
(UTC+03:00)

ISS - Pass Details

Date: 05 May 2020
Orbit: 418 x 421 km, 51.6° (Epoch: 08 May)

Event Time Altitude Azimuth Distance (km) Brightness Sun altitude
Exits shadow 03:17:28 39° 105° (ESE) 643 -2.8 -21.0°
Drops below altitude 10° 03:19:57 10° 73° (ENE) 1,499 -0.3 -20.8°
Sets 03:22:05 0° 67° (ENE) 2,366 0.9 -20.6°
